Location: Góry Miechowskie
(50.3599°N, 20.1803°E)
Time: 07:14:23
(UTC+00:00)

Cosmos 1461 - Pass Details

Date: 18 September 2024
Orbit: 489 x 565 km, 65.0° (Epoch: 12 October)

Event Time Altitude Azimuth Distance (km) Brightness Sun altitude
Exits shadow 00:52:38 13° 351° (N) 1,537 5.5 -30.0°
Drops below altitude 10° 00:53:46 10° 9° (N) 1,696 6.0 -29.9°
Sets 00:56:59 0° 38° (NE) 2,592 7.5 -29.6°
